SCP
0 0 0 0 0 0 0 0 0 0 0 0 0 1 1 2 2 2 2 2 2 2 2 2 2 2 3 3 3 3 3 3 2 2 2 2 2 2 2 2 2 3 3 2
0 0 0 0 0 0 0 1 1 1 0 1 1 1 1 1 2 2 3 2 2 2 2 2 2 3 3 3 3 3 3 3 3 2 2 1 1 2 1 2 2 3 3 3
0 0 0 0 0 0 0 1 1 1 0 1 1 1 1 1 2 3 4 3 3 2 2 2 3 3 3 3 3 3 3 3 3 3 2 2 2 2 2 2 2 3 3 3
0 0 0 0 0 0 0 0 0 0 0 0 0 0 1 1 3 5 5 4 3 3 3 3 3 3 3 3 3 3 3 3 3 3 2 2 2 2 2 2 2 2 3 3
0 0 0 0 0 0 0 0 0 0 0 0 0 0 1 2 4 5 6 5 4 3 3 3 3 4 4 4 4 4 4 4 3 3 2 3 3 3 2 2 2 2 2 2
0 0 0 0 0 0 0 0 0 0 0 0 0 0 1 2 4 6 6 5 4 3 3 4 5 7 7 6 6 5 5 4 4 3 3 3 3 3 3 2 2 2 2 2
0 0 0 0 0 0 0 0 0 0 0 0 0 1 2 3 5 6 6 5 4 3 3 5 8 11 11 9 7 7 6 6 5 4 4 4 4 4 4 3 2 3 3 2
0 0 0 0 0 0 0 0 0 0 0 0 0 1 2 4 5 6 6 5 5 4 5 7 11 13 12 10 8 8 7 6 5 5 4 5 5 4 4 3 3 3 3 2
0 0 0 0 0 0 0 0 0 0 0 0 0 1 2 3 4 5 6 6 6 5 5 8 11 11 10 9 9 8 7 6 5 5 4 4 4 4 4 4 3 3 2 2
0 0 0 0 0 0 0 0 0 0 0 0 0 1 2 3 4 5 6 6 5 5 5 7 8 8 8 8 8 6 5 5 4 4 4 4 4 4 4 4 4 3 3 2
0 0 0 0 0 0 0 0 0 0 0 0 0 1 1 2 3 4 5 4 4 5 5 5 5 5 5 6 5 5 5 4 4 3 3 4 4 4 4 4 4 4 3 3
0 0 0 0 0 0 0 0 0 0 0 0 1 1 2 3 3 4 4 4 4 4 5 5 4 4 4 4 4 4 4 4 3 3 3 3 3 4 5 5 6 5 5 4
0 0 0 0 0 0 0 0 0 0 0 1 1 2 3 4 4 4 4 3 4 4 5 5 4 4 4 4 5 5 5 4 3 2 2 3 3 4 5 6 6 6 5 5
0 0 0 0 0 0 0 0 0 0 1 1 2 3 4 5 5 5 4 4 4 5 5 5 4 4 3 4 5 6 5 4 3 3 3 3 3 3 4 5 5 6 6 5
0 0 0 0 0 0 1 1 1 1 2 2 3 4 4 5 6 6 6 6 7 7 7 5 5 4 4 5 7 7 6 5 4 4 3 3 3 3 3 4 5 6 6 6
0 0 0 0 0 1 1 1 2 2 3 3 4 4 4 4 5 6 7 8 8 8 7 6 5 5 7 9 9 9 7 6 5 4 3 3 3 3 3 3 4 6 7 7
0 0 0 0 1 1 1 1 2 3 3 3 4 4 3 4 5 6 7 7 7 6 6 6 6 7 10 12 10 9 8 7 5 3 2 2 2 2 2 3 4 5 7 8
0 0 0 0 1 1 1 1 2 2 3 3 4 4 5 7 8 7 7 6 6 7 7 8 9 11 13 12 10 9 8 7 5 3 2 2 2 2 2 2 3 4 6 7
0 0 0 0 1 1 1 1 2 2 3 3 4 5 8 10 11 9 7 7 8 8 9 12 14 14 13 10 9 9 9 7 6 4 3 3 3 3 3 3 3 4 5 6
0 0 0 0 1 1 1 2 2 2 3 3 4 6 8 9 9 9 8 8 8 8 9 11 13 13 11 10 10 11 10 9 7 6 4 4 4 4 4 4 4 3 4 4
1 0 0 0 0 1 2 3 3 2 3 3 4 6 8 8 8 8 9 9 8 7 7 8 9 10 9 10 11 11 10 8 7 6 5 4 4 4 4 4 4 4 3 3
1 1 0 0 1 1 3 3 3 2 3 3 4 6 8 9 9 9 9 8 7 6 6 6 7 7 8 8 9 9 7 6 6 5 4 5 5 5 5 5 4 4 4 4
1 1 1 1 2 2 3 3 3 3 3 3 4 6 8 9 10 10 8 7 6 6 5 5 6 6 6 7 7 6 4 4 5 5 5 6 7 7 7 6 6 6 5 4
1 2 2 3 3 3 3 3 2 2 3 3 4 5 7 8 9 10 10 7 6 5 5 4 4 4 5 6 6 5 3 4 5 6 7 8 8 8 8 8 7 7 6 5
2 2 3 3 3 3 3 3 2 2 3 4 4 5 8 9 9 11 11 9 6 5 4 4 4 4 4 5 5 5 4 5 7 9 10 10 10 9 9 7 5 5 5 4
2 2 2 3 2 2 2 2 2 3 4 4 5 7 9 9 9 10 11 9 7 5 4 4 4 4 4 4 5 5 5 6 9 12 12 10 9 10 9 6 4 3 3 2
Wind_Speed
2 3 3 7 7 7 7 5 3 3 4 4 5 6 9 9 9 9 8 9 9 9 8 8 9 8 7 6 5 5 5 4 3 2 1 1 1 0 0 1 2 2 2 3
4 4 10 6 4 4 4 4 2 1 4 5 5 4 6 8 10 12 12 11 11 8 7 8 8 8 8 7 6 5 5 4 3 2 2 2 2 1 1 1 1 1 2 2
6 8 4 3 2 3 2 5 5 4 2 3 5 2 3 5 4 7 9 10 10 12 11 10 9 8 8 7 7 6 5 5 4 3 2 1 2 1 1 0 0 1 2 2
5 7 3 2 4 4 3 5 5 6 5 2 4 2 4 5 5 6 7 8 10 10 10 10 9 9 9 8 6 5 5 4 4 4 3 3 2 2 2 2 1 1 1 1
5 4 3 4 6 5 7 5 4 4 4 3 1 4 5 2 4 7 8 10 10 11 12 11 11 10 9 8 7 5 5 4 4 3 3 3 2 2 1 1 1 1 1 1
6 4 3 5 4 4 4 3 4 5 5 2 3 4 4 4 8 7 7 9 9 11 11 10 9 8 7 7 6 6 5 4 4 4 3 4 4 3 2 1 1 1 1 1
5 5 3 1 0 2 5 6 4 5 4 3 2 3 6 5 5 8 10 9 9 9 9 9 9 9 8 8 7 6 6 4 3 4 3 3 4 4 3 2 2 2 1 1
3 6 5 2 5 4 3 9 8 5 4 3 2 1 5 3 2 4 7 8 8 8 8 9 9 9 9 9 8 7 6 4 4 3 3 2 3 2 2 2 2 2 2 2
6 6 5 3 4 7 3 3 8 8 3 2 2 2 5 2 3 4 6 7 8 9 9 8 8 8 8 8 7 7 7 5 4 3 3 2 1 2 2 2 2 1 1 1
7 3 5 4 1 1 6 6 6 6 5 2 1 2 4 4 3 4 6 7 6 8 8 8 7 8 8 7 7 7 7 6 4 3 3 2 2 1 2 2 2 1 1 1
5 5 4 3 2 3 1 3 6 5 6 7 3 6 7 9 8 8 8 7 8 8 8 8 7 7 8 8 7 7 6 5 4 3 3 2 2 2 2 1 1 2 1 1
3 6 2 5 4 3 4 5 7 5 3 5 5 7 5 6 7 7 7 7 7 8 7 7 8 8 8 8 8 7 6 5 5 5 4 3 2 2 2 2 2 2 2 1
4 7 3 6 8 6 1 1 4 6 5 4 5 5 2 4 4 5 8 8 8 7 6 6 6 7 8 8 8 7 6 6 5 4 4 3 3 3 3 2 2 2 2 1
5 6 7 7 7 3 2 2 2 6 4 3 5 5 2 3 5 6 7 7 9 8 9 8 7 6 7 7 8 7 6 6 5 4 4 4 3 3 3 2 2 2 2 2
6 4 2 3 3 2 1 2 1 3 7 7 7 7 7 8 8 9 8 7 8 8 8 8 8 7 6 7 7 6 6 5 5 5 4 3 3 2 2 2 2 2 2 2
5 4 2 2 2 2 1 2 1 2 4 6 6 4 5 3 5 7 8 8 8 7 7 7 8 8 7 8 8 7 6 6 5 5 4 3 3 3 2 2 2 2 2 2
2 4 3 1 3 4 3 3 2 3 4 7 5 5 4 5 5 7 8 8 7 6 6 7 8 8 8 8 9 8 7 6 5 4 4 3 4 3 2 3 2 2 2 2
5 4 3 1 3 2 7 2 4 6 3 2 4 4 7 7 6 5 5 7 6 6 6 6 6 6 6 6 7 7 7 6 5 4 4 4 4 3 2 2 2 2 2 2
7 7 4 3 2 3 4 3 1 6 3 2 4 4 5 6 5 3 1 4 6 5 6 5 5 6 6 6 7 7 7 6 5 5 4 4 4 4 3 2 2 2 2 2
5 6 6 4 3 4 5 4 0 7 2 3 3 4 4 5 4 4 3 3 5 4 4 4 3 4 5 5 6 7 6 6 6 6 5 4 4 4 4 3 2 1 2 2
4 4 4 4 3 4 5 5 3 4 5 2 3 4 4 4 5 5 4 4 4 5 5 5 4 4 4 5 7 6 5 6 6 6 5 5 5 5 4 3 2 2 2 2
4 3 2 3 3 5 5 3 2 5 3 1 3 3 3 3 3 3 4 4 4 4 4 4 4 3 3 5 7 6 5 5 5 5 5 5 4 4 4 4 2 2 3 2
2 5 5 5 5 5 2 2 1 2 1 1 2 3 5 5 4 4 3 4 3 4 3 3 4 4 2 3 5 6 4 4 4 5 5 4 4 3 3 4 3 2 2 2
3 2 4 2 1 2 3 3 4 3 1 2 1 3 4 4 4 5 5 5 4 4 3 3 4 4 3 2 3 4 4 4 4 4 4 4 4 3 3 2 3 3 3 3
2 2 2 0 2 3 4 2 2 3 3 3 2 1 4 6 5 5 5 5 4 4 3 3 4 4 4 4 3 3 3 4 4 5 4 4 4 4 3 2 1 2 3 4
1 2 3 4 4 2 3 3 1 2 2 2 2 1 1 4 5 5 5 5 4 3 3 3 3 4 4 4 3 3 3 4 5 4 5 4 4 4 3 3 1 2 1 2
Wind_Direction
327 72 238 229 205 191 176 166 175 196 163 125 161 172 178 177 169 168 170 169 171 173 172 166 162 159 154 155 155 155 152 162 144 129 130 135 156 165 153 186 184 184 176 167
12 263 239 222 201 165 160 141 169 191 161 146 165 189 189 186 184 178 174 175 173 168 164 166 165 164 165 167 166 161 160 165 165 167 168 167 159 169 179 193 173 187 182 181
216 240 228 182 187 144 160 168 181 163 125 101 107 5 228 215 198 178 177 175 171 173 174 174 171 171 169 172 174 172 170 169 172 165 134 92 69 50 51 320 229 223 191 188
240 247 231 199 210 162 211 209 177 164 135 190 152 181 261 210 202 186 179 175 179 180 177 174 172 171 174 177 172 165 166 167 170 159 148 147 149 169 206 201 201 229 208 186
249 237 214 218 221 178 200 196 179 166 140 96 42 124 273 201 206 204 191 186 184 182 177 177 176 174 172 169 166 164 160 164 164 159 164 153 156 184 192 175 172 219 265 226
245 252 207 209 228 188 155 77 41 49 72 63 244 142 262 216 205 195 185 183 183 178 175 174 168 159 162 162 160 158 157 165 164 160 172 167 170 172 158 165 176 221 259 273
300 297 276 205 63 356 89 86 42 9 24 240 241 132 241 237 199 171 169 173 179 173 167 164 162 163 164 163 163 162 162 170 172 170 177 177 173 166 168 170 181 191 211 237
203 272 262 228 179 185 160 134 153 184 203 265 351 193 262 265 190 153 157 162 160 159 160 166 172 169 167 167 166 162 163 166 169 169 174 169 166 162 161 163 178 187 201 214
183 240 270 252 204 156 147 160 164 135 123 74 324 308 318 356 71 115 138 144 162 167 162 165 167 163 164 163 165 163 164 167 169 163 142 126 148 161 163 164 163 161 182 166
163 214 278 277 36 24 152 148 94 106 132 148 277 258 236 230 180 148 158 167 168 158 156 157 161 164 166 165 162 159 160 163 163 161 159 154 146 167 168 151 143 140 139 101
147 158 292 344 165 192 115 100 108 114 143 145 183 257 230 203 184 172 179 169 161 154 159 162 170 172 164 158 156 159 161 158 159 159 155 138 143 133 137 140 144 139 119 115
150 129 219 264 269 183 158 168 142 143 187 152 153 253 254 189 177 163 160 158 161 159 163 164 171 168 160 160 159 161 164 166 167 163 153 148 150 143 151 158 164 145 133 132
120 108 85 340 341 358 31 189 147 131 121 141 150 248 287 148 150 146 146 153 153 151 159 160 160 165 162 162 160 162 165 168 164 156 149 151 161 164 165 172 165 152 141 132
106 104 146 186 219 232 289 290 137 122 134 165 189 197 264 170 156 146 149 153 151 156 167 166 161 165 162 159 158 159 163 161 158 154 155 157 170 174 165 161 149 147 141 129
84 111 148 198 208 154 186 276 219 145 167 164 187 181 209 197 171 160 156 156 144 153 162 167 168 165 165 162 161 161 160 157 157 154 155 164 165 156 138 135 132 126 124 124
62 105 76 1 11 42 15 333 92 132 139 139 143 188 225 184 136 146 158 161 156 157 159 165 164 163 170 173 171 165 162 162 156 155 163 163 152 141 138 144 135 121 112 102
54 93 87 286 324 46 334 273 151 117 127 146 171 204 159 131 153 174 172 164 160 159 160 162 165 174 181 181 172 167 166 156 150 151 150 154 151 148 155 152 128 135 144 130
135 101 120 127 56 193 242 269 121 107 66 92 133 150 153 163 176 177 168 156 150 153 152 161 165 177 185 174 162 156 151 149 152 155 156 154 151 155 155 146 147 155 156 152
144 134 118 117 151 261 296 322 101 113 53 24 117 129 141 134 79 34 144 143 153 161 163 161 164 168 163 158 157 148 147 150 151 167 173 172 164 157 149 151 160 166 147 140
77 106 114 119 138 210 251 292 192 97 35 322 112 125 135 111 119 240 214 155 145 137 139 140 142 132 136 150 146 145 152 158 169 175 173 169 165 160 158 163 168 171 160 151
46 57 113 140 167 247 266 296 41 105 221 266 108 128 139 154 190 197 160 147 141 146 143 133 126 129 143 144 138 147 156 175 180 169 163 165 167 164 162 158 167 157 152 135
145 129 149 133 153 246 304 15 117 193 209 175 130 145 147 145 132 120 121 132 128 139 130 130 129 126 129 138 138 151 173 178 161 157 163 170 171 172 162 157 163 155 150 148
138 176 168 165 200 243 318 112 156 137 152 224 158 170 155 141 141 140 138 136 147 141 137 137 133 130 137 145 151 158 175 159 152 158 168 172 166 169 160 162 166 160 156 164
334 40 91 79 288 313 2 31 40 40 347 284 199 172 154 147 154 154 155 161 166 150 149 140 132 139 161 163 158 165 162 151 158 168 177 173 163 161 158 162 169 171 176 182
287 35 67 58 279 4 4 7 31 24 21 22 21 133 158 149 158 165 164 170 171 162 163 159 157 170 180 179 175 177 160 150 166 177 180 175 170 165 162 156 174 192 204 197
254 167 155 221 227 185 268 305 7 24 355 339 350 10 154 156 160 162 167 169 165 173 166 163 170 184 186 179 179 184 174 166 167 175 181 180 176 173 166 159 110 13 239 212